Overview Statistics Trail Chart Weather Telemetry Raw packets
 

This is the latest recevied weather packets stored in our database for station/object JO1YDG-13. If no packets are shown the sender has not sent any weather packets the latest 10 day(s).

<< 1 2 3 4 5 >>
Time Temp. Humidity Pressure Rain* Wind** Luminosity Snow
1788574449 28.33° C 60% 1007.5 hPa 0 mm - - -
1788574150 28.33° C 62% 1007.6 hPa 0 mm - - -
1788573850 27.78° C 62% 1007.6 hPa 0 mm - - -
1788573550 28.33° C 62% 1008 hPa 0 mm - - -
1788573250 27.78° C 62% 1008 hPa 0 mm - - -
1788572950 27.78° C 67% 1008.1 hPa 0 mm - - -
1788572650 27.22° C 63% 1008.1 hPa 0 mm - - -
1788572349 27.22° C 63% 1008.1 hPa 0 mm - - -
1788572050 27.22° C 63% 1008.3 hPa 0 mm - - -
1788571750 27.22° C 65% 1008.3 hPa 0 mm - - -
1788571450 26.67° C 66% 1008.4 hPa 0 mm - - -
1788571150 27.22° C 66% 1008.4 hPa 0 mm - - -
1788570849 26.67° C 66% 1008.5 hPa 0 mm - - -
1788570549 26.67° C 68% 1008.5 hPa 0 mm - - -
1788570249 26.11° C 68% 1008.5 hPa 0 mm - - -
1788569949 26.11° C 69% 1008.6 hPa 0 mm - - -
1788569649 26.11° C 70% 1008.6 hPa 0 mm - - -
1788569349 26.11° C 68% 1008.7 hPa 0 mm - - -
1788569050 25.56° C 71% 1008.7 hPa 0 mm - - -
1788568750 25.56° C 71% 1008.7 hPa 0 mm - - -
1788568450 25° C 76% 1008.7 hPa 0 mm - - -
1788568150 25.56° C 74% 1008.7 hPa 0 mm - - -
1788567850 25° C 77% 1008.7 hPa 0 mm - - -
1788567550 24.44° C 79% 1008.7 hPa 0 mm - - -
1788567263 23.89° C 80% 1008.7 hPa 0 mm - - -

* Rain latest hour (hover to see other rain measurements)
** Current wind speed in m/s (hover to see current wind gust speed)